Theta_e
294 294 295 295 295 294 294 293 294 293 294 292 293 292 292 292 293 293 293 293 293 294 294 294 295 295 296 296 297 298 298 298 298 299 299 299 300 302 308 310 310 310 312 314 316 317 318 319 320 322 323 324 324 325 326 325 325 327 330 334 337 340 341 341 342 343 344 345 345 345 345 345 345 344 345 345 345 344 344 344 344 344 343 343 342
294 294 294 294 294 293 293 293 293 293 292 292 292 291 291 292 292 293 293 293 293 294 294 293 294 295 295 296 296 296 296 297 297 298 298 299 299 300 306 309 310 310 311 312 314 316 317 318 319 320 321 322 323 325 326 326 326 326 326 329 333 336 337 339 341 342 342 343 344 344 344 344 344 344 344 345 344 342 342 343 342 343 342 342 342
294 293 293 294 293 292 293 292 292 292 292 292 292 292 292 292 292 292 293 292 292 293 293 293 293 294 295 295 295 295 295 296 296 297 297 298 298 299 301 306 309 310 309 310 312 313 315 316 317 318 319 320 321 323 324 325 326 326 326 326 328 333 335 336 339 340 341 342 342 343 344 344 343 343 344 344 343 342 343 341 342 342 343 342 341
294 294 293 293 292 292 293 292 292 291 292 291 292 292 292 292 292 293 293 293 292 292 293 292 292 292 293 293 294 294 294 294 295 295 296 297 297 298 298 300 305 308 309 309 310 311 313 314 315 315 316 318 319 321 321 322 324 325 326 327 327 327 332 335 337 339 340 341 342 341 342 343 343 343 343 343 343 341 340 341 342 342 343 342 341
293 293 293 292 292 292 292 292 291 292 291 292 292 291 290 290 291 292 291 292 291 291 293 292 291 291 292 292 293 293 293 293 293 293 294 295 296 296 297 298 299 304 307 309 308 309 310 312 313 314 315 316 317 319 320 320 321 323 325 326 327 328 329 330 333 335 337 339 341 341 340 341 342 342 342 343 343 342 341 341 342 341 341 342 341
292 293 292 291 291 291 291 291 291 291 291 291 290 290 290 290 290 290 292 291 290 290 290 290 290 291 291 292 292 292 292 292 292 293 293 294 295 295 296 297 297 298 300 306 308 309 308 309 310 311 312 314 315 317 317 318 319 320 321 322 324 327 329 328 329 333 336 337 339 340 340 340 341 342 342 342 342 342 342 341 340 342 342 342 341
292 291 292 291 291 291 291 290 291 291 290 290 290 289 289 289 290 289 289 289 289 290 290 289 290 290 291 291 291 291 292 292 292 293 293 294 294 295 295 296 296 298 300 298 301 304 307 308 309 310 311 312 313 314 316 317 318 318 320 321 323 323 325 328 329 329 333 335 336 338 339 339 339 342 342 342 342 342 342 341 341 342 342 341 340
292 292 291 290 290 290 290 291 290 289 290 290 290 289 289 290 289 289 288 288 289 288 289 288 289 289 289 290 290 291 291 291 292 292 293 293 293 294 295 295 296 296 300 298 298 300 305 308 308 308 309 309 310 312 314 316 317 318 319 320 321 322 324 325 326 328 331 333 335 336 338 338 339 339 339 340 340 342 341 341 341 341 342 341 340
291 291 290 290 290 289 290 290 290 289 289 289 288 290 288 290 289 290 289 287 288 287 288 287 288 289 289 289 290 290 290 290 291 292 294 293 293 293 294 295 297 300 297 297 298 298 302 306 308 308 308 308 309 311 312 314 316 317 319 320 321 322 323 324 325 326 325 330 334 335 336 338 338 339 339 339 338 339 340 341 340 340 341 341 339
290 291 290 289 289 289 289 289 289 289 288 288 288 288 288 288 288 288 289 288 287 287 287 287 288 289 289 289 289 289 289 290 291 293 292 292 292 293 294 295 296 296 297 297 297 297 298 301 306 307 306 308 309 310 311 312 313 314 316 317 318 318 319 320 323 325 325 325 327 333 335 337 338 339 339 339 339 339 340 341 341 341 341 341 340
290 290 289 288 288 288 288 289 289 288 288 287 287 288 288 288 287 287 288 288 287 287 287 287 288 288 288 288 288 289 289 290 291 291 292 292 293 295 296 296 296 296 297 297 297 297 298 298 298 298 299 305 308 309 310 311 311 312 314 315 316 317 319 319 319 320 322 325 326 326 330 334 337 339 339 338 337 337 340 341 341 341 341 341 339
290 289 288 288 288 287 288 288 289 288 288 287 286 286 287 286 286 286 286 287 288 287 287 287 287 286 287 288 288 289 289 289 289 290 291 292 293 294 294 295 295 296 297 297 297 297 297 297 297 297 299 302 306 308 309 308 309 311 313 315 317 318 319 319 320 321 321 322 323 326 327 329 334 336 337 337 337 337 336 339 341 340 341 340 339
289 289 288 289 287 287 287 288 288 287 287 287 287 287 287 287 286 286 286 286 286 286 286 286 285 285 286 285 285 287 288 289 288 289 290 291 292 292 293 294 295 295 296 296 296 295 294 294 296 297 297 297 299 304 307 310 310 309 309 310 312 316 319 320 320 320 322 324 324 324 324 327 330 333 338 338 338 338 337 337 338 340 340 341 338
289 288 288 287 286 286 287 287 287 287 287 287 287 289 287 286 287 285 286 285 284 286 286 285 284 282 282 282 283 285 287 288 288 289 289 291 292 292 292 292 291 290 290 290 291 292 293 295 296 295 296 297 298 299 299 299 301 305 307 310 311 313 315 316 316 315 313 316 321 325 326 326 327 330 333 337 338 339 338 338 336 335 339 342 340
288 288 288 287 286 286 285 286 286 287 286 285 286 285 286 285 285 284 284 285 285 286 286 286 283 283 283 281 279 279 283 285 287 287 287 287 287 287 288 288 288 289 290 290 291 293 293 293 293 293 295 296 296 296 297 298 299 301 306 308 309 311 313 313 314 315 316 314 315 318 321 325 327 327 329 333 337 339 339 339 338 337 336 337 338
288 288 288 287 286 286 285 285 286 286 286 285 285 284 285 285 285 285 285 282 282 283 286 285 284 283 279 279 279 280 277 281 281 284 286 286 286 286 287 289 289 289 290 289 289 290 291 291 293 294 294 294 293 293 294 295 298 298 298 300 303 308 308 311 312 313 315 316 317 321 322 323 323 328 329 329 332 337 339 339 339 339 337 337 336
288 287 287 286 286 286 285 285 285 286 285 285 284 284 284 284 285 284 283 282 282 282 284 285 284 285 282 280 277 277 277 279 282 282 284 284 285 286 286 286 286 287 287 288 290 291 291 292 293 293 293 293 293 293 294 295 295 296 296 296 298 304 306 309 311 312 314 316 316 316 316 316 321 326 329 330 331 333 337 339 339 339 339 338 336
287 287 286 286 285 285 285 284 285 285 286 285 284 284 284 284 284 284 284 284 283 282 281 283 285 285 285 284 282 277 278 280 279 277 283 285 284 284 285 285 286 287 288 288 289 290 290 291 292 292 292 292 293 294 294 294 295 295 295 296 302 303 304 306 309 311 313 314 314 315 316 315 317 319 322 328 330 330 333 337 339 339 338 337 336
286 286 286 285 285 285 284 284 284 284 285 284 283 283 283 283 285 284 284 285 283 281 281 281 282 283 285 285 285 285 284 281 278 280 278 281 282 282 283 285 285 286 287 288 289 289 290 290 290 290 290 291 292 292 292 292 294 294 295 296 301 303 302 305 306 307 310 311 312 313 315 316 317 318 319 322 325 330 331 333 336 338 337 337 337
286 286 286 285 285 284 284 284 284 284 284 283 283 283 284 284 284 284 283 283 282 281 281 281 280 280 283 282 282 283 283 283 283 280 279 277 279 282 284 284 284 285 286 286 286 287 287 288 288 289 288 289 290 290 290 290 291 291 293 297 301 301 301 301 302 304 306 308 311 312 315 316 317 316 316 318 323 327 330 331 333 337 338 336 337
286 286 285 285 285 284 284 283 283 283 283 284 283 283 283 282 282 282 282 282 282 282 281 280 281 280 280 279 280 280 280 281 281 281 278 277 277 279 280 283 284 284 284 285 286 286 287 287 287 287 288 288 288 289 290 290 291 291 293 296 298 298 299 300 300 302 302 304 306 308 312 313 315 316 317 318 318 321 325 329 331 333 335 335 337
285 285 284 285 284 284 283 283 282 283 283 282 282 282 282 282 282 282 282 282 282 282 281 281 281 281 281 280 279 278 278 278 278 278 279 279 277 278 279 278 278 280 282 283 284 285 285 286 286 286 287 287 288 289 289 289 290 290 292 295 297 297 298 299 300 300 301 303 304 306 309 311 312 315 317 318 320 320 321 322 326 329 333 335 335
284 284 284 284 283 284 283 282 282 283 282 282 281 281 281 282 282 282 281 281 281 281 282 282 281 280 280 280 279 279 278 277 277 278 278 276 277 277 278 279 279 278 281 282 283 284 284 285 285 285 286 286 287 288 288 289 290 291 293 296 297 297 298 299 300 301 301 302 302 303 304 307 309 310 311 314 317 318 317 320 323 325 328 330 334
283 283 283 283 283 282 282 282 282 281 281 281 281 282 282 281 281 280 280 280 280 280 280 279 280 279 279 279 279 280 279 279 279 279 278 277 277 277 277 278 279 279 281 282 283 282 283 283 284 284 285 286 287 287 288 288 289 292 291 293 295 296 297 299 299 299 300 301 302 303 304 304 304 306 309 311 313 314 315 317 317 321 324 327 330
282 282 282 282 282 282 281 281 281 281 281 281 281 281 280 280 280 279 279 279 279 279 278 279 279 278 278 279 279 279 279 280 280 279 279 279 278 276 278 278 276 277 279 280 279 281 282 282 284 284 284 285 286 287 287 288 288 290 292 291 294 295 295 297 298 299 300 300 302 302 304 304 304 305 307 308 310 312 313 314 315 318 319 324 327
281 281 282 282 282 281 281 280 280 280 280 280 280 280 280 279 279 279 279 279 279 278 278 278 278 279 279 278 278 279 279 280 279 279 278 278 277 276 276 277 277 276 278 278 279 278 280 282 283 284 284 285 285 286 287 287 287 290 290 289 290 293 294 295 297 297 298 298 298 301 304 305 305 305 306 308 309 311 313 313 315 317 317 320 324
281 281 282 281 280 280 280 279 279 279 279 279 280 279 279 279 279 278 278 278 278 278 278 278 279 278 278 278 279 278 279 279 279 279 279 278 278 277 276 274 275 276 276 277 278 278 278 280 282 282 283 284 284 285 285 286 287 290 290 289 288 291 293 294 296 297 298 298 299 300 301 302 304 305 305 305 307 308 310 313 314 315 317 318 320
281 281 280 280 279 279 279 279 279 279 278 278 278 278 278 277 277 277 277 279 278 277 277 277 278 278 278 278 278 278 279 279 279 279 279 279 279 278 277 276 274 272 275 274 276 276 280 278 280 282 282 283 284 284 286 287 286 288 287 285 285 287 291 293 295 296 297 298 298 300 301 302 303 304 305 305 305 305 306 308 310 309 310 312 313
280 280 279 279 279 278 278 278 278 278 277 277 277 277 277 277 276 276 276 276 277 277 277 277 277 277 277 277 277 278 278 279 279 279 279 279 279 279 278 277 276 274 272 272 274 275 277 279 277 280 282 282 283 283 283 283 285 285 284 285 285 286 289 291 292 294 295 296 296 296 297 298 299 301 303 305 305 306 306 307 307 308 308 309 311
279 280 278 278 278 279 277 276 276 276 277 276 277 276 276 276 276 276 276 276 276 276 277 277 277 277 277 277 277 277 278 278 278 278 278 278 278 278 278 278 278 275 274 273 273 276 276 278 279 279 281 280 281 281 282 281 284 283 283 284 284 284 287 288 289 291 292 293 294 294 295 296 297 298 299 301 303 306 308 307 308 308 308 309 311
278 278 277 277 277 276 276 276 276 276 276 276 276 276 276 275 276 276 276 275 275 275 276 276 277 277 276 276 277 277 277 277 277 278 278 277 277 277 277 278 277 277 275 275 272 275 278 276 278 280 279 279 280 280 280 281 282 283 283 283 283 285 285 285 287 289 290 291 292 293 294 295 295 297 299 298 301 303 306 307 307 308 309 310 312
277 277 276 276 276 276 276 276 275 275 275 275 275 275 275 275 275 275 275 275 274 274 275 275 276 276 275 275 276 276 276 276 276 276 276 277 277 276 276 276 276 276 276 275 274 273 277 277 278 278 279 278 279 278 279 281 282 284 282 281 282 284 283 283 286 287 289 290 292 293 294 295 297 297 296 298 300 303 305 305 305 307 307 308 312
276 276 276 276 276 276 275 275 275 274 274 274 275 275 274 274 274 274 274 274 274 274 274 274 275 274 274 274 274 275 276 275 275 275 275 275 275 275 275 275 275 275 275 274 273 273 276 278 278 277 278 278 277 278 277 279 279 281 282 281 281 281 281 280 281 283 285 286 288 291 294 295 296 297 298 297 300 301 302 304 305 306 307 307 310
275 275 275 275 275 275 274 274 274 274 274 274 274 274 274 274 273 274 274 273 273 273 273 272 272 273 273 273 273 273 274 273 273 273 273 273 273 273 273 274 274 274 276 275 273 273 272 274 275 276 276 277 275 277 277 277 278 279 279 279 279 279 279 279 279 280 284 285 287 288 290 291 293 298 299 299 299 301 302 304 304 305 306 307 308
275 275 274 274 274 274 274 274 274 273 274 273 273 273 273 272 272 272 272 272 271 271 271 271 271 272 271 271 271 272 272 272 272 272 272 272 272 272 271 272 272 273 274 273 272 270 270 271 274 273 274 275 275 275 276 278 278 278 277 277 277 278 279 279 279 279 283 286 288 290 290 291 292 293 294 297 299 300 301 302 304 304 305 306 306
274 274 274 274 274 274 273 273 273 273 273 272 272 272 272 271 271 271 271 271 271 270 270 270 270 270 270 270 270 271 271 270 270 270 271 271 271 270 270 271 271 271 272 272 272 271 270 270 272 273 274 273 274 276 277 278 277 276 276 276 277 277 277 278 279 280 283 287 289 289 290 291 292 293 294 295 295 299 300 301 302 304 304 304 304
273 273 273 273 273 273 273 272 272 272 272 272 271 271 271 271 270 270 270 270 270 270 270 270 271 270 270 270 270 270 270 269 269 269 270 270 270 270 269 270 270 271 271 271 271 271 270 269 270 272 273 273 274 274 275 274 275 276 276 275 276 276 277 278 280 280 283 285 286 288 289 291 292 293 294 296 295 295 300 301 301 302 303 303 303
273 273 273 272 272 272 271 271 270 270 270 270 270 270 270 270 270 270 270 269 269 269 269 270 270 270 270 270 270 270 270 269 269 270 270 270 270 270 270 270 270 270 270 270 271 270 270 269 270 269 271 271 271 273 274 274 273 273 274 275 276 276 276 277 278 280 281 283 284 285 288 289 291 293 295 296 297 299 300 301 301 301 301 301 302
272 271 271 271 271 271 270 270 270 270 270 270 269 268 268 268 269 269 269 269 269 269 269 270 270 270 270 271 271 271 271 270 270 270 270 270 270 270 270 270 270 270 270 270 270 270 269 269 269 270 270 271 272 271 273 275 275 274 273 273 273 275 277 277 278 280 282 283 285 287 287 288 290 292 293 295 295 297 299 300 301 301 300 301 301
271 271 270 270 270 271 270 270 270 270 269 269 268 268 268 268 268 269 269 269 269 269 270 271 271 272 272 272 272 272 272 272 272 272 272 271 271 270 271 271 271 270 270 270 270 270 269 269 269 269 270 270 271 273 274 274 273 273 274 273 272 273 275 276 277 277 281 284 284 285 287 289 291 293 295 296 297 298 299 300 300 300 300 301 301
271 271 271 271 270 270 270 270 269 270 269 269 269 268 268 268 268 268 269 269 270 270 271 272 272 272 272 273 273 272 273 275 276 276 276 277 274 273 274 273 271 270 269 269 270 269 269 269 269 270 270 270 271 271 271 271 271 271 273 274 273 274 275 276 277 280 281 282 284 285 286 287 288 291 293 295 296 297 297 298 298 298 299 300 301
270 270 270 270 269 269 269 269 269 269 269 269 270 273 273 269 268 269 270 271 272 272 272 272 272 273 273 273 273 275 276 276 276 277 278 278 278 276 274 274 274 273 272 271 270 270 270 269 269 270 269 269 270 271 271 272 273 274 274 274 273 274 275 276 277 279 283 283 282 282 284 289 290 292 293 293 296 296 296 298 298 299 299 301 302
268 268 269 268 268 268 268 268 268 269 269 270 272 274 275 276 274 272 272 272 272 272 273 272 272 272 273 273 273 274 275 275 274 276 277 277 278 278 278 278 278 275 273 272 272 272 271 271 271 271 270 270 271 272 272 273 274 274 273 274 274 275 274 273 273 276 280 281 283 282 282 287 288 287 288 288 289 291 294 296 298 299 300 302 302
267 268 268 268 268 268 268 268 269 269 269 271 273 274 275 276 276 274 273 273 273 273 273 273 272 272 272 272 272 273 273 273 273 273 275 277 277 278 278 278 278 278 278 275 273 272 272 271 271 272 272 272 272 273 273 274 274 275 275 275 275 274 274 274 274 274 279 282 278 278 279 283 286 286 286 287 288 289 291 293 296 298 300 302 303
267 267 267 267 267 268 268 268 268 269 269 271 273 274 275 275 276 275 274 274 273 273 273 273 272 272 272 272 272 272 273 275 274 274 274 273 276 277 278 278 278 278 278 279 279 275 274 272 271 271 272 273 273 274 276 276 277 275 275 275 275 276 275 275 275 276 277 280 280 278 278 281 283 282 284 287 288 289 290 293 295 297 298 300 302
267 267 267 267 268 268 268 268 268 268 268 270 273 273 274 275 276 276 274 274 274 273 272 272 272 272 272 272 272 272 273 273 274 274 274 273 273 273 273 273 273 274 277 278 278 278 277 274 273 271 273 273 272 273 275 276 275 274 274 274 275 274 274 274 276 277 278 280 279 278 276 278 280 282 284 286 288 289 290 293 295 296 298 299 300
266 266 266 267 267 268 268 268 268 267 267 271 272 273 274 275 276 276 274 273 272 272 272 272 272 272 273 273 273 273 273 273 274 275 274 275 274 274 274 274 274 274 273 273 273 273 273 273 273 273 273 274 275 275 276 277 276 276 276 275 275 275 275 277 277 277 277 279 279 277 274 278 282 283 285 286 287 288 289 292 294 296 297 298 299
267 267 267 267 267 267 267 267 266 266 267 270 272 273 274 274 276 274 273 272 272 272 272 273 273 273 273 273 273 273 274 274 276 278 277 275 274 274 273 273 274 274 275 276 278 278 276 275 275 274 274 275 277 276 276 276 277 277 277 277 276 276 275 274 273 275 276 279 281 280 279 280 285 284 285 287 287 287 289 289 292 295 296 297 299
266 267 267 267 267 267 266 266 266 266 266 268 271 272 273 275 275 273 273 272 272 271 272 272 273 273 273 274 274 274 274 273 275 277 278 278 274 274 273 273 273 273 273 275 278 279 280 280 281 281 281 282 282 283 283 283 281 280 278 276 274 275 274 272 273 274 275 278 280 282 281 281 285 285 285 286 286 286 287 289 290 293 295 297 298
266 267 267 266 267 266 266 266 266 265 265 267 271 272 274 274 275 273 272 271 271 272 272 273 273 273 274 276 275 273 272 272 275 277 278 276 273 273 272 272 272 272 273 275 275 276 279 280 280 280 281 281 282 282 283 283 283 281 276 274 276 277 275 275 273 275 277 278 280 283 280 280 284 286 284 286 286 286 287 288 290 292 295 297 298
266 267 266 266 266 266 266 266 267 267 265 267 271 272 273 274 274 272 272 271 271 271 271 272 273 273 273 274 275 274 273 274 277 277 278 276 274 273 273 272 272 271 273 274 274 274 274 274 275 276 276 278 278 277 277 281 281 280 277 276 277 276 275 275 275 276 275 276 280 284 280 280 282 284 284 283 283 286 286 287 288 291 292 293 297
Wind_Speed
3 3 3 3 3 3 4 4 4 5 5 6 5 6 6 6 6 6 6 6 6 6 6 6 5 6 6 7 7 7 7 7 7 6 6 6 6 7 11 12 16 17 18 19 20 20 20 20 19 20 20 20 20 21 22 21 21 21 21 20 21 20 20 19 18 17 16 16 16 17 16 21 19 19 21 21 19 21 19 18 19 21 22 21 22
3 2 3 2 3 4 4 4 4 4 6 5 5 5 5 5 5 5 5 5 6 7 6 6 6 6 6 7 7 7 7 7 7 7 7 6 7 7 11 12 13 17 17 18 19 19 20 20 20 20 20 21 21 21 22 22 22 22 22 21 20 22 20 19 19 18 17 16 18 18 18 18 19 20 20 21 18 18 20 25 23 23 23 25 23
3 3 3 2 4 3 2 3 3 4 5 4 3 3 4 4 5 5 5 6 6 6 6 6 6 6 6 6 7 7 7 7 7 8 8 8 7 6 8 12 12 13 16 17 18 18 19 19 20 20 20 20 21 21 21 22 22 23 22 22 21 20 21 20 19 18 17 17 17 19 19 19 20 20 20 20 19 18 20 20 20 22 25 25 24
3 2 0 1 4 1 1 2 2 5 4 3 3 3 3 4 4 4 5 5 6 6 6 6 6 6 6 7 7 7 7 7 7 7 7 8 7 7 7 7 10 12 13 15 17 17 17 18 18 19 20 20 20 21 21 21 22 22 23 22 22 22 21 21 20 18 17 17 17 18 19 19 19 20 19 20 20 21 24 22 24 26 24 24 25
5 3 1 2 3 1 2 1 3 5 3 2 3 3 4 4 4 3 5 5 6 6 5 6 6 7 7 7 7 7 7 7 7 7 8 8 8 7 7 7 6 8 10 10 13 15 16 17 17 18 19 19 20 21 21 21 22 22 23 23 22 22 22 21 22 21 21 19 18 18 19 20 21 20 20 20 21 21 22 22 22 26 27 25 24
3 3 0 2 2 2 3 2 5 3 1 2 3 3 3 3 3 4 5 5 6 6 6 6 6 6 7 7 7 7 7 8 7 8 8 8 8 7 7 7 7 6 5 7 9 10 14 17 18 18 18 19 20 21 22 22 23 23 23 24 24 23 23 23 22 22 21 21 20 18 19 20 22 23 22 21 21 22 22 23 28 27 28 27 23
2 1 1 1 1 2 2 3 3 2 2 2 2 3 3 3 4 5 5 4 5 5 6 6 7 7 7 6 7 8 7 8 8 8 8 8 8 7 7 7 7 6 5 5 6 8 11 15 17 17 18 19 19 20 21 23 23 23 24 23 24 24 24 23 23 22 22 21 20 17 16 19 22 21 23 22 21 21 23 23 25 27 27 25 21
3 1 1 2 2 2 2 3 3 2 2 2 2 3 3 3 3 4 5 5 5 6 5 6 6 8 8 7 8 8 8 8 9 9 8 8 7 7 6 6 6 7 6 6 6 6 9 11 13 16 17 18 19 20 22 22 23 24 24 24 24 24 24 24 24 23 22 21 19 18 16 16 18 23 25 24 22 21 22 26 25 25 27 28 27
3 2 1 2 2 2 2 3 3 2 1 1 2 3 3 4 3 3 3 6 6 6 6 5 7 7 8 9 9 9 9 8 8 9 8 8 8 7 6 6 6 6 6 6 6 5 6 9 11 13 14 16 18 19 20 21 22 22 23 24 24 24 24 24 24 24 23 21 19 18 16 16 18 19 21 25 26 24 25 24 23 27 27 28 28
3 2 2 2 2 2 2 2 2 2 1 1 2 2 3 3 4 2 4 5 6 6 8 7 6 7 8 9 10 9 9 9 9 9 8 8 7 7 7 7 6 6 6 6 6 6 6 7 10 11 11 11 15 19 20 20 21 21 22 23 25 26 25 24 24 23 23 23 22 21 18 17 18 18 20 22 24 27 26 26 26 27 29 28 27
4 3 2 2 2 2 2 2 2 1 1 1 2 3 3 3 4 6 4 4 5 6 7 7 8 8 9 11 10 10 9 9 9 9 8 7 7 7 6 7 6 6 6 6 6 6 5 5 5 4 5 9 13 18 19 19 20 20 21 22 24 26 26 25 24 24 23 22 23 23 21 19 18 17 19 22 26 28 26 26 26 27 29 27 32
4 3 3 2 2 3 3 1 0 0 0 0 2 2 3 3 4 4 6 6 4 6 6 6 7 9 11 10 8 10 10 11 11 10 8 8 8 7 7 7 7 7 6 6 6 5 4 4 5 6 5 6 11 13 16 17 18 19 20 22 24 24 24 24 24 23 23 23 23 23 23 23 21 20 19 19 20 25 29 27 27 27 26 29 27
4 4 4 4 3 3 2 1 2 2 1 1 1 1 2 3 4 3 4 6 6 4 4 5 8 9 6 8 10 9 12 12 12 9 8 8 8 7 7 6 5 5 5 5 5 4 4 6 7 6 6 5 7 10 10 10 11 17 22 24 26 26 24 23 23 25 25 24 23 23 23 24 24 21 18 19 20 22 24 27 28 28 28 27 30
5 4 4 3 3 3 2 2 1 0 1 0 1 2 3 3 3 3 1 3 6 5 7 7 4 5 12 13 10 6 8 9 9 5 4 4 4 5 6 6 8 8 7 8 8 7 6 6 4 5 6 6 5 3 4 8 10 15 20 22 23 26 27 27 28 30 31 30 28 26 25 24 25 25 23 21 21 22 23 24 29 29 28 27 28
4 4 4 4 4 3 3 2 1 1 1 1 1 2 2 3 3 3 5 2 4 4 7 3 6 6 8 8 6 13 6 5 2 3 12 12 11 9 8 7 9 7 7 7 6 5 4 5 7 8 8 6 5 5 5 7 10 14 14 16 19 22 23 25 27 28 29 29 29 28 26 25 25 26 26 25 24 23 23 26 28 28 31 31 34
6 5 4 4 4 4 3 2 1 1 1 1 2 3 3 3 3 3 1 5 3 3 3 4 3 7 7 2 10 5 9 0 7 11 12 13 8 8 5 6 5 6 7 8 8 8 7 5 7 7 4 5 7 8 8 8 10 11 13 15 15 18 25 27 27 27 27 28 27 25 26 26 26 26 27 27 28 27 26 26 28 29 29 29 33
6 6 5 5 4 4 3 3 2 1 0 1 3 4 4 3 2 2 3 4 6 3 3 3 5 3 3 6 5 3 2 11 15 12 5 1 4 6 5 10 9 9 6 6 6 6 6 7 6 6 7 8 8 8 7 6 7 8 11 13 15 16 20 24 25 26 25 26 28 29 28 28 28 29 28 29 29 28 27 27 27 28 28 27 27
6 5 5 4 4 3 3 3 2 2 3 4 3 3 3 3 3 4 4 4 4 4 5 3 4 4 4 6 6 6 10 8 4 11 7 9 12 6 7 3 3 6 6 8 8 7 6 8 6 6 5 8 9 8 7 7 6 6 6 9 16 21 22 24 26 26 27 27 27 30 32 30 29 29 28 26 27 30 28 28 28 28 27 24 27
6 5 5 5 4 4 4 3 2 2 2 3 3 3 3 3 3 4 4 3 2 4 5 5 4 4 5 6 7 7 7 8 7 10 19 8 6 2 2 2 4 6 7 7 7 6 5 5 7 9 10 8 5 5 7 8 11 13 16 19 20 19 22 21 22 25 27 28 30 29 30 30 27 28 29 29 28 28 29 29 28 27 28 26 28
7 6 6 5 5 4 4 3 3 2 3 4 4 3 3 3 3 3 3 3 3 5 5 4 4 4 3 6 6 5 4 5 5 7 11 15 24 3 6 6 5 4 5 8 8 9 11 9 9 7 5 7 9 10 10 11 10 11 10 14 16 20 23 25 26 25 26 28 29 29 27 29 31 31 31 30 30 30 28 28 29 27 27 28 27
7 7 6 6 5 5 4 4 3 3 3 4 3 3 3 3 4 4 4 4 3 3 3 5 4 6 4 4 4 5 4 4 4 6 6 12 19 18 17 6 6 8 10 6 7 8 9 10 9 10 11 10 10 10 10 9 9 9 11 16 19 23 25 26 27 26 27 28 29 29 30 30 32 33 32 31 30 30 31 28 28 28 29 29 30
7 6 6 6 6 5 4 4 4 3 3 3 3 3 3 4 4 4 4 5 4 4 5 5 4 4 3 4 4 4 4 3 4 5 6 7 12 20 17 19 22 9 3 10 11 9 9 10 10 9 9 9 9 10 10 10 10 9 12 18 19 22 25 26 28 29 29 28 28 29 29 30 29 30 31 30 29 28 30 30 30 29 27 28 29
7 7 7 6 6 5 5 4 4 3 3 3 3 3 4 4 5 4 3 4 3 4 5 5 4 5 5 6 6 6 6 6 6 5 6 7 10 15 15 15 17 22 14 5 9 9 10 9 10 10 9 11 11 10 11 11 13 14 19 18 20 23 26 28 28 29 29 30 30 29 30 31 32 32 32 33 32 30 30 30 29 30 30 28 28
7 7 7 6 6 5 4 4 4 3 4 4 4 4 4 3 2 2 3 3 3 3 3 4 5 6 5 5 6 5 6 7 6 6 6 8 9 14 14 15 18 16 12 11 12 9 10 10 10 10 11 10 10 10 11 13 13 19 16 18 21 26 27 28 28 28 30 30 29 30 31 33 33 31 30 31 35 37 33 32 32 31 30 31 27
7 7 6 7 6 6 5 5 4 5 4 4 2 1 1 1 2 3 3 4 4 4 5 5 6 6 6 4 5 5 6 5 6 6 6 7 7 12 14 10 14 19 19 11 11 9 9 9 11 10 11 10 10 10 10 12 12 13 17 15 22 23 26 28 28 28 28 28 29 31 32 32 32 32 33 33 33 36 38 35 34 33 32 32 30
8 8 7 7 6 5 5 4 3 3 2 2 3 3 2 3 3 3 4 4 4 4 5 5 5 6 5 6 6 7 7 7 8 6 8 7 9 10 13 12 12 16 16 16 14 12 9 4 7 6 6 9 10 10 10 11 12 15 17 16 19 24 27 28 30 31 32 33 33 32 31 28 30 30 30 32 31 32 36 36 34 35 34 33 32
8 7 7 6 6 5 4 4 3 3 3 3 2 2 2 3 3 3 3 3 4 5 5 5 6 6 6 6 7 7 7 7 6 7 7 8 9 9 9 14 17 15 16 14 17 16 14 11 9 8 7 8 9 10 11 11 14 20 18 13 12 19 25 30 31 31 30 31 31 30 30 29 28 30 31 31 32 33 36 38 37 35 35 35 34
7 7 6 7 6 5 4 4 4 4 3 3 3 2 1 2 3 3 4 3 4 5 5 4 6 6 7 7 7 8 7 8 8 8 8 8 8 8 8 10 12 19 18 18 17 17 11 11 10 7 7 9 9 9 10 14 11 17 18 14 15 17 22 23 25 27 28 28 29 28 28 28 31 31 30 29 31 33 36 37 37 35 33 31 30
7 7 7 6 6 6 5 4 3 3 2 2 2 1 1 2 3 3 5 4 5 5 5 5 5 6 6 7 8 8 7 7 7 7 8 8 8 8 8 10 9 12 15 17 23 19 18 7 10 10 4 9 11 7 9 9 12 16 15 16 16 14 17 23 26 29 31 31 32 33 33 32 30 29 29 30 32 32 32 33 34 34 34 33 33
7 6 7 6 6 5 4 3 3 3 3 3 2 2 2 3 3 4 4 4 5 5 5 5 7 5 7 7 7 8 7 7 7 7 7 8 8 8 8 9 9 13 12 15 22 19 19 18 11 11 10 5 6 11 8 11 16 20 17 17 16 17 25 29 30 32 34 36 37 37 37 36 34 33 32 29 28 28 30 32 33 35 35 36 36
7 7 7 6 5 4 4 4 4 4 3 2 2 2 2 3 4 5 4 4 5 5 5 5 5 5 6 8 7 8 8 8 8 8 7 7 8 8 8 8 9 10 12 13 18 23 15 19 20 10 12 13 11 12 13 12 15 19 16 14 15 20 30 28 34 35 35 36 37 39 38 37 37 35 34 33 34 33 31 30 29 30 33 37 38
7 7 6 6 5 5 5 5 4 3 3 2 2 2 3 4 4 5 4 4 4 5 5 5 5 6 7 9 9 8 8 7 8 8 8 7 8 8 8 8 9 9 11 14 18 27 20 19 20 21 14 14 13 11 11 14 12 17 15 14 17 25 18 15 23 29 30 33 35 35 37 36 35 36 37 35 34 34 32 32 32 31 33 35 38
7 7 6 6 5 5 5 4 4 3 3 3 2 2 3 3 4 4 4 4 5 6 5 6 6 6 7 8 9 9 8 9 8 8 8 9 9 9 8 8 10 11 12 16 19 24 19 16 16 19 15 13 16 11 11 12 14 11 13 14 14 14 15 16 17 27 34 35 37 38 36 35 36 35 34 36 34 34 33 33 34 33 32 34 34
7 7 7 5 5 5 4 4 4 3 3 3 3 2 3 3 4 3 4 4 5 6 5 7 6 6 7 9 10 9 7 9 9 10 9 9 8 9 9 9 11 13 12 13 15 16 20 17 19 20 19 11 17 15 14 13 14 13 15 14 13 13 14 15 15 17 32 35 35 36 37 41 41 37 35 34 34 35 34 34 34 33 31 30 30
7 7 6 6 5 5 4 4 3 3 3 3 2 2 3 3 4 4 4 4 5 6 7 7 7 6 8 9 10 8 7 9 9 9 8 9 8 10 11 10 12 13 11 11 13 17 22 23 19 22 21 16 14 19 19 16 14 12 14 14 14 13 11 14 15 16 29 35 36 36 36 36 38 39 39 38 34 32 32 34 34 31 30 29 30
8 6 6 6 5 5 5 4 4 3 3 2 3 3 3 3 3 5 5 5 5 6 7 7 7 7 8 10 10 9 9 10 10 9 9 8 9 9 10 11 12 13 13 13 16 17 18 20 18 17 18 16 17 17 14 15 15 15 15 16 14 15 16 14 16 18 22 33 35 36 37 37 38 37 37 39 39 34 31 31 33 34 30 29 29
7 7 6 5 5 5 5 4 4 3 3 3 3 3 3 3 4 5 5 5 5 6 7 8 8 8 9 10 10 9 9 10 10 10 9 10 9 10 11 11 12 13 12 12 15 16 18 20 19 18 19 17 17 19 17 19 18 14 13 14 14 14 15 16 15 18 29 39 39 39 37 37 36 37 38 37 38 39 35 33 32 34 33 29 29
7 7 6 5 5 5 4 4 3 3 2 2 2 3 3 3 4 5 5 5 6 7 7 8 8 8 9 10 10 10 10 10 11 10 10 12 12 12 13 13 13 12 14 16 15 18 17 20 20 20 18 18 17 16 15 15 16 16 15 15 15 14 14 15 16 14 14 15 14 16 24 29 34 41 39 38 38 36 35 34 33 34 34 31 29
8 7 6 5 4 5 3 3 2 2 2 2 3 3 4 4 5 6 6 6 7 6 7 8 9 9 10 11 11 11 12 11 12 12 11 14 13 14 14 14 15 15 16 16 15 18 18 17 17 17 18 18 17 19 14 14 16 15 16 17 18 14 12 14 15 11 11 15 20 29 28 27 29 25 28 34 36 37 36 35 34 35 34 32 30
8 7 7 7 4 4 3 3 3 2 3 3 4 4 5 5 5 5 5 6 6 8 9 10 11 12 13 13 13 12 13 14 13 14 15 15 15 16 16 14 15 15 17 14 16 14 17 15 18 16 16 18 14 16 13 14 17 15 13 15 20 19 13 13 15 19 15 12 15 13 21 24 25 32 36 34 36 35 34 33 35 34 34 32 31
6 6 6 5 5 4 4 3 4 4 4 5 5 5 5 6 5 4 5 6 8 9 10 11 12 12 13 13 12 12 14 18 22 21 21 21 16 14 12 10 12 13 14 13 14 12 14 14 16 15 15 18 17 15 16 14 15 17 14 14 18 19 16 16 14 14 13 14 14 14 15 16 19 19 16 15 16 24 26 28 23 29 30 31 32
7 6 6 5 5 5 5 6 6 6 6 5 8 14 11 6 5 4 5 7 8 10 11 12 12 12 13 11 12 19 21 22 23 24 25 25 26 21 17 14 12 12 13 13 13 12 14 15 14 14 15 17 13 17 18 17 16 18 17 18 21 19 15 15 16 14 10 9 13 18 18 16 17 16 15 14 14 16 12 14 14 16 21 28 31
7 6 6 6 6 6 6 6 7 6 6 6 12 12 12 12 7 6 7 8 9 10 11 11 12 12 12 13 12 14 16 18 18 25 25 25 26 28 30 29 25 19 16 16 16 15 14 15 14 14 15 20 17 16 20 16 14 19 18 15 15 15 15 16 18 17 12 10 13 13 17 13 8 8 8 8 9 9 8 10 16 20 23 25 28
7 6 6 6 6 6 6 7 7 6 6 9 13 11 11 11 10 8 7 8 8 9 10 11 12 12 13 12 11 9 12 13 13 15 19 26 28 29 31 30 30 30 28 20 17 15 16 16 16 16 17 16 18 12 16 14 16 17 17 17 18 14 16 15 16 16 17 9 14 17 20 17 10 12 12 12 10 9 10 16 21 23 23 24 25
7 7 7 7 7 7 7 7 7 6 6 10 11 11 10 11 12 11 7 8 9 9 9 10 11 12 12 13 14 14 10 22 19 15 15 17 23 30 31 32 32 33 31 33 32 24 17 18 19 21 17 18 19 18 13 19 14 19 17 15 17 14 12 15 17 15 18 7 10 15 17 18 12 14 15 14 11 10 12 18 23 24 25 25 25
8 7 7 8 7 7 7 7 6 6 6 8 11 9 10 11 11 11 7 8 7 8 10 11 11 12 14 15 14 13 15 15 14 15 15 16 16 16 17 16 15 21 28 32 33 36 31 22 21 21 19 16 22 19 17 17 19 15 15 16 16 14 15 17 17 16 17 10 11 14 18 23 17 14 16 14 10 10 10 16 22 22 24 25 25
9 9 8 8 7 6 6 6 4 5 5 10 9 9 10 11 11 11 5 5 7 7 9 10 11 13 14 13 14 18 16 13 14 16 15 16 17 16 16 16 14 11 13 14 16 17 17 20 21 21 18 17 19 20 16 14 18 15 14 18 17 16 17 17 15 17 20 18 15 14 17 20 15 13 13 12 11 11 10 16 23 24 25 25 25
6 6 6 6 7 7 6 5 4 6 6 9 8 8 9 9 11 6 3 7 7 7 8 10 12 12 12 14 15 14 14 14 17 27 25 20 18 18 19 17 16 13 11 14 22 24 22 19 20 20 20 22 25 23 22 18 15 15 16 17 17 15 15 17 19 16 17 15 11 12 13 17 13 11 13 10 10 11 11 11 20 24 24 25 24
8 8 7 6 6 6 6 6 6 6 5 7 8 8 9 10 8 4 5 5 6 7 8 10 10 11 12 13 15 15 15 16 21 27 27 26 18 16 16 17 16 15 16 15 25 33 34 37 39 40 41 41 41 41 40 41 31 22 15 16 19 13 15 18 17 16 18 14 11 11 14 18 13 10 11 10 9 12 12 12 12 17 22 23 23
8 8 7 6 6 6 7 7 7 6 4 7 9 8 9 9 8 4 4 6 7 7 8 9 7 9 12 21 19 16 16 16 25 28 28 23 16 16 16 18 19 17 14 12 12 16 28 34 37 38 38 39 39 40 40 39 38 28 17 19 17 11 17 16 14 14 14 13 12 7 13 17 15 11 10 11 12 10 10 10 12 11 14 17 22
8 7 6 6 5 5 5 5 8 7 6 7 10 8 8 8 7 3 5 5 7 8 8 8 8 9 11 12 20 19 19 21 27 27 29 25 18 17 15 17 17 18 17 15 14 16 16 17 19 20 22 27 26 23 24 37 38 34 23 21 17 15 19 17 15 14 16 15 9 8 14 15 13 13 10 10 11 9 7 10 7 7 9 10 11
Wind_Direction
61 53 71 55 68 46 41 42 19 37 33 14 24 9 350 344 336 344 338 332 329 323 320 325 322 326 325 318 317 317 317 313 307 304 303 297 294 289 292 294 299 304 305 305 306 306 306 305 304 302 300 298 296 294 292 289 284 281 279 278 280 281 282 277 270 265 253 245 235 227 222 230 229 234 236 228 222 229 221 210 199 195 189 196 197
75 34 79 53 72 48 43 38 27 40 41 21 16 10 339 330 331 329 328 323 321 307 315 318 323 320 316 311 311 309 309 308 306 304 298 299 294 291 293 294 295 299 301 302 304 305 305 305 305 304 302 301 299 297 295 293 290 285 281 277 274 277 278 280 280 272 261 250 246 236 228 223 227 229 231 232 225 221 226 218 207 205 194 199 193
77 46 50 52 69 56 35 57 31 48 47 22 4 344 323 315 313 314 318 312 299 300 315 314 316 318 310 310 306 306 306 305 304 303 303 299 297 293 291 292 293 293 297 301 303 304 305 307 308 308 306 304 302 300 298 295 293 291 286 282 277 272 273 276 277 276 267 258 254 252 238 229 228 228 225 226 221 209 217 214 212 211 204 199 194
112 96 59 81 87 90 81 77 60 63 44 11 332 317 314 312 313 317 311 304 309 316 309 320 320 312 308 302 300 304 298 293 293 294 291 292 292 291 289 286 288 290 290 297 302 305 307 308 308 309 308 307 305 303 301 298 296 294 292 287 281 275 272 273 274 277 272 261 255 250 248 238 232 230 226 222 219 210 221 213 211 216 207 200 189
125 142 188 137 120 127 105 85 87 73 42 333 331 340 345 327 311 323 328 328 321 318 328 324 317 308 307 301 302 298 293 293 294 296 290 285 284 283 281 282 281 284 288 291 299 304 307 308 309 309 309 309 309 307 305 303 300 297 294 292 288 282 275 269 270 270 273 269 254 248 245 244 241 236 231 225 221 214 208 217 216 219 214 205 193
120 135 128 104 126 127 103 89 78 68 21 355 16 338 312 309 314 344 328 325 323 324 326 317 305 303 300 296 296 293 295 294 292 289 289 285 281 280 280 280 280 283 285 291 298 304 310 309 308 307 307 308 308 308 306 305 303 299 296 293 290 287 281 276 270 269 268 269 268 258 251 244 240 237 233 227 221 219 217 211 218 221 217 209 197
110 117 134 119 94 88 85 95 87 80 42 16 349 318 309 318 341 337 320 324 318 314 314 305 305 303 298 301 296 292 289 286 286 285 282 281 279 279 282 283 285 289 290 289 293 299 296 295 300 305 308 310 308 306 305 304 303 301 298 295 291 288 286 282 276 270 268 268 268 265 254 250 248 245 241 231 222 219 215 209 215 221 221 212 191
119 105 115 96 119 112 108 86 88 67 45 356 359 330 326 335 339 331 327 322 323 310 306 302 307 304 302 297 291 286 284 284 283 281 278 280 279 282 284 283 285 286 280 280 279 276 273 280 294 304 307 308 307 305 304 302 301 301 301 299 295 292 288 285 281 277 271 269 267 264 254 246 246 249 249 242 230 219 216 215 215 219 222 215 198
122 128 160 161 124 111 96 92 81 73 23 358 349 331 340 325 314 314 340 317 315 303 303 304 302 296 294 291 287 287 284 284 281 277 279 276 282 283 278 276 273 272 276 276 277 273 275 280 286 291 293 296 301 303 304 304 302 300 299 300 299 296 292 288 284 280 276 273 272 267 259 245 243 245 250 247 242 234 226 219 216 222 221 215 201
138 161 136 135 153 145 122 104 88 73 48 3 309 309 312 309 312 328 345 315 302 306 304 300 296 295 291 287 287 283 281 281 276 275 272 275 275 273 268 269 269 269 273 275 273 269 272 269 274 279 281 283 293 302 304 304 304 303 302 301 301 300 297 293 289 285 281 277 274 273 267 255 245 241 241 244 240 235 226 224 223 224 221 207 195
156 156 165 136 118 111 100 93 91 85 66 359 319 313 315 339 355 322 311 288 291 293 291 295 298 296 293 290 287 283 281 273 272 270 266 264 264 262 269 268 264 265 264 265 259 265 264 265 270 273 267 271 285 296 301 301 303 303 302 302 301 299 296 295 293 291 287 282 277 273 271 265 255 244 244 246 247 245 233 226 225 225 226 215 201
154 153 133 140 122 103 91 85 156 127 116 329 322 325 327 339 318 312 306 299 281 280 288 300 299 295 292 287 282 290 286 281 278 273 272 270 264 263 263 263 265 266 267 265 267 267 270 281 290 275 267 271 280 283 288 292 296 300 303 304 303 299 295 293 293 292 289 286 282 277 272 270 264 255 246 241 245 248 248 239 228 223 220 220 211
150 155 171 145 144 141 145 158 165 170 175 223 231 324 330 306 289 280 291 303 303 299 303 318 310 297 279 287 294 281 273 273 271 270 270 266 262 268 266 268 264 272 273 279 285 285 290 296 284 275 278 282 276 275 284 300 313 315 307 305 303 303 307 307 308 309 305 295 285 278 276 274 270 263 239 236 237 241 245 246 239 224 218 216 213
162 164 152 146 142 139 145 154 124 155 197 269 318 278 279 269 255 292 251 299 300 320 310 328 309 320 327 321 310 277 252 259 258 258 260 256 279 282 284 293 292 293 291 291 285 281 284 281 290 303 302 291 281 299 312 311 302 296 296 298 300 302 302 302 306 306 301 297 296 292 282 271 271 270 261 244 235 237 239 239 244 238 225 214 204
156 155 152 160 155 143 159 155 138 112 36 329 285 277 263 273 274 274 308 292 281 297 290 299 292 320 300 291 312 330 337 299 324 8 328 308 298 292 288 285 284 280 279 280 278 285 297 305 301 296 288 286 308 316 311 302 295 287 286 293 297 298 297 297 295 293 293 290 289 290 289 287 275 269 269 264 253 237 235 239 241 241 240 233 232
163 160 158 161 162 163 147 119 128 129 151 262 275 266 264 275 280 272 269 302 302 288 295 317 310 329 329 359 305 317 320 321 337 300 277 276 270 270 269 276 290 293 299 294 291 290 287 287 284 279 287 307 311 307 299 290 292 306 309 305 299 295 296 294 293 292 291 292 289 291 291 287 285 279 270 268 265 257 245 242 243 240 236 235 238
161 164 165 165 160 154 140 141 125 127 125 249 262 252 247 244 254 280 265 249 277 276 293 315 296 253 236 326 330 324 274 316 328 300 200 356 256 269 273 285 280 280 284 279 284 287 291 285 282 288 295 297 294 284 278 281 294 290 292 289 285 283 283 289 291 291 291 293 296 295 294 294 291 286 282 271 267 265 255 245 243 241 239 235 234
162 165 163 156 154 148 139 135 153 172 192 217 235 259 270 266 256 241 253 237 245 281 288 304 280 268 240 213 215 262 310 311 343 306 282 243 266 218 265 238 268 294 289 285 285 284 279 280 279 283 288 287 281 277 280 285 281 284 290 294 293 293 289 289 289 288 288 288 288 290 290 289 289 289 286 287 279 268 265 260 247 241 238 227 231
165 163 163 158 152 147 146 151 154 173 214 224 246 250 248 250 258 257 247 253 280 282 282 291 306 280 263 254 255 268 281 309 301 313 315 316 177 314 252 276 287 283 277 274 284 288 289 288 291 288 282 274 278 291 294 292 293 292 289 285 282 281 284 283 281 283 283 284 285 283 284 286 287 287 287 283 280 282 276 266 259 245 239 227 221
165 167 163 158 153 151 151 151 158 192 207 221 223 234 248 271 264 256 267 259 252 259 275 271 276 286 297 299 296 288 286 280 269 274 294 306 307 271 212 260 282 246 281 298 293 292 291 288 283 281 286 291 295 290 288 286 282 277 272 274 281 284 284 282 282 281 279 280 279 280 279 283 287 286 286 284 280 279 280 278 267 253 240 232 224
167 163 162 158 156 158 153 153 166 198 204 221 229 227 235 245 266 279 271 273 248 250 271 279 280 279 311 296 304 289 297 285 293 294 278 302 290 300 310 283 245 267 288 275 288 293 290 290 288 289 287 286 283 282 279 278 277 277 277 278 279 280 281 282 281 277 277 277 276 274 275 275 278 283 283 282 281 278 275 276 278 270 255 241 227
166 163 158 159 157 154 152 162 179 195 206 220 230 243 251 252 251 255 256 257 250 253 255 264 260 274 270 287 288 303 304 289 271 262 275 239 272 300 309 314 314 295 237 293 288 282 282 282 282 279 281 284 285 281 280 278 277 277 276 276 276 278 281 280 280 278 275 274 272 269 268 270 272 275 280 282 282 280 277 275 273 275 275 256 235
163 167 163 162 162 156 157 169 177 186 198 209 229 229 237 240 240 242 249 249 258 256 265 263 263 260 260 248 245 242 240 259 264 269 271 279 294 286 294 300 295 301 302 270 277 284 283 280 280 280 281 284 283 281 278 277 277 277 279 277 276 279 281 281 281 281 277 272 272 273 273 271 269 267 270 277 278 278 279 279 278 274 272 273 249
158 159 167 162 155 157 162 168 177 188 203 206 218 220 224 226 254 264 267 264 261 263 256 260 255 252 249 241 249 249 253 255 259 256 253 269 274 284 291 304 298 285 290 307 290 273 270 278 274 276 276 275 274 274 279 281 279 280 283 285 285 284 282 282 283 282 281 278 273 270 270 269 267 267 267 267 274 275 275 276 276 275 273 269 269
163 159 166 159 154 157 162 170 184 193 196 193 205 216 246 277 265 266 257 256 248 245 248 249 251 257 257 257 266 266 267 262 268 263 263 273 273 282 284 287 286 298 302 309 298 298 274 264 269 268 273 272 274 273 274 275 276 279 283 284 284 286 288 286 283 281 281 281 278 273 269 267 263 263 264 264 265 271 273 272 272 271 269 268 266
162 168 164 153 149 154 157 160 165 180 194 222 235 237 237 234 240 248 251 248 247 250 253 257 259 260 259 267 255 259 260 260 262 261 267 270 266 268 287 289 281 286 293 300 293 299 288 228 247 260 268 282 282 283 279 281 281 285 289 288 288 286 286 286 285 284 283 282 280 278 274 265 262 262 261 262 263 265 271 272 270 269 268 266 263
158 152 137 137 141 137 146 160 179 190 192 197 202 215 220 233 232 237 252 247 250 253 255 256 263 262 265 259 263 256 255 257 253 258 259 254 260 269 277 291 295 287 286 286 293 276 279 284 273 268 270 274 278 283 288 286 285 284 285 283 285 286 285 282 279 279 278 277 277 274 274 275 270 262 259 259 262 264 266 270 269 268 268 265 262
144 137 139 139 145 149 159 174 182 190 192 188 196 197 213 238 260 260 263 255 256 255 255 257 261 261 260 259 261 258 255 255 252 258 254 254 259 262 263 270 284 294 299 299 291 282 281 282 285 253 268 275 274 274 282 291 299 312 314 307 299 293 288 291 294 295 295 295 294 291 287 279 271 265 261 259 258 259 261 264 268 269 269 269 266
143 142 141 144 150 153 165 173 180 179 178 183 182 188 200 228 247 258 259 255 253 253 257 256 257 261 259 261 259 265 262 258 260 256 254 256 254 253 248 255 259 270 287 295 291 296 295 285 287 290 260 277 285 282 292 296 300 306 302 296 290 289 292 295 296 296 294 293 293 291 289 288 288 287 280 267 257 254 255 258 262 265 265 264 263
145 143 141 147 146 150 154 166 174 185 190 187 182 196 208 228 234 242 242 242 254 256 254 252 258 253 259 262 259 266 265 264 264 263 262 262 261 256 256 254 250 256 265 276 283 285 292 294 270 285 292 268 287 295 293 297 298 297 291 287 291 291 292 293 292 290 290 291 289 287 285 283 282 280 276 277 277 271 263 262 263 264 263 263 261
145 143 145 146 144 155 164 179 177 178 173 180 181 194 213 234 241 246 249 248 252 259 251 254 260 260 267 267 268 268 270 271 268 264 264 264 266 268 264 262 257 258 268 269 278 278 282 289 290 280 285 293 287 289 293 285 281 281 279 278 282 287 290 290 285 281 278 275 277 280 279 278 275 274 273 271 271 266 264 263 264 266 268 266 261
148 144 147 149 155 167 171 171 176 169 172 180 179 208 224 233 239 247 253 250 260 262 269 265 271 270 271 272 271 274 279 281 277 276 276 274 276 275 272 268 265 261 264 266 264 273 280 283 290 293 291 294 294 290 286 288 280 278 282 278 277 281 281 282 286 287 285 284 282 272 273 275 272 267 266 269 263 262 261 261 262 262 264 265 263
146 146 150 155 157 165 170 172 174 180 174 187 187 198 223 238 242 244 251 255 261 263 268 269 267 274 276 277 277 277 282 279 281 282 280 280 278 275 274 275 274 270 264 263 264 271 279 282 289 290 299 305 296 288 286 283 285 281 277 277 282 285 285 283 283 283 282 280 277 275 273 274 272 267 263 260 261 262 262 261 260 259 260 261 263
146 149 154 155 159 168 169 176 180 180 185 188 198 200 227 241 252 249 255 260 262 272 273 276 277 275 278 278 278 281 279 278 281 277 275 276 277 277 274 274 273 272 268 272 274 280 283 290 286 288 289 294 291 294 293 291 286 286 282 281 282 280 280 278 275 275 279 277 275 273 273 273 273 274 265 258 258 259 260 261 258 255 254 255 259
143 149 153 153 160 162 169 179 184 187 189 192 191 201 223 234 249 254 259 261 268 271 273 274 276 278 277 275 278 281 281 278 275 276 279 277 275 272 273 273 275 275 276 277 284 282 280 280 281 284 286 291 285 295 293 284 281 283 285 283 283 281 271 275 278 279 278 277 275 272 270 270 271 271 272 272 264 259 259 261 259 254 252 252 251
145 146 147 154 157 169 175 183 185 186 182 186 196 209 221 233 246 258 257 260 264 267 271 274 276 275 272 277 274 275 275 272 271 272 271 268 268 269 273 272 271 271 270 270 266 271 276 279 278 278 285 293 291 285 286 290 288 287 284 285 280 274 277 275 273 271 273 277 276 273 270 268 267 269 267 264 267 266 261 259 260 260 253 251 249
143 141 149 155 164 171 183 183 191 188 190 192 199 209 224 226 243 253 255 258 261 265 267 267 269 268 269 268 272 270 269 269 270 268 268 266 263 264 264 266 265 266 263 260 266 265 272 274 280 277 282 281 283 285 287 287 286 279 277 273 275 272 274 273 277 279 281 278 275 273 274 272 265 261 261 261 257 259 258 257 256 256 254 249 249
141 150 156 164 168 178 172 183 177 179 174 180 198 222 228 238 244 247 253 257 261 264 264 265 265 266 268 266 266 267 265 264 268 271 270 268 266 260 256 257 258 260 263 264 262 263 262 269 274 280 276 279 280 276 280 280 283 286 283 278 274 270 276 280 275 269 267 268 273 271 270 265 264 262 260 258 255 254 257 255 253 253 251 248 246
148 153 159 153 155 160 171 160 173 176 195 198 214 227 230 233 236 244 253 255 259 260 263 265 263 262 262 263 266 267 265 265 271 271 268 273 271 265 259 262 264 262 260 260 257 260 258 260 261 262 273 272 273 278 275 272 273 274 283 286 284 278 271 269 276 270 268 267 265 270 272 267 264 262 255 252 251 252 251 249 248 248 247 246 244
149 153 155 156 151 135 154 152 172 181 197 213 220 222 228 227 231 241 245 255 262 265 266 267 271 271 268 267 266 265 269 271 270 275 275 276 274 268 268 260 261 258 260 257 258 256 260 256 262 265 263 269 265 269 272 273 275 272 267 275 282 285 281 281 276 282 280 278 283 277 277 274 266 258 256 255 254 254 252 249 245 244 244 244 243
136 140 138 137 150 153 164 178 199 211 212 222 220 221 220 227 220 227 244 255 262 269 272 271 271 269 269 269 268 269 270 273 277 277 278 280 279 276 270 239 241 243 251 251 253 251 255 258 261 259 264 267 264 268 270 264 265 268 277 267 274 279 282 277 269 256 259 268 267 268 272 266 263 257 251 247 246 246 248 247 247 244 242 243 243
132 136 140 143 152 169 184 201 208 216 222 219 228 232 227 203 201 218 236 246 259 266 271 273 271 269 268 269 273 276 281 284 283 284 285 284 282 280 280 279 275 269 262 259 253 250 253 259 258 257 260 258 253 264 260 262 266 269 271 274 269 275 275 278 275 263 255 272 286 280 273 270 258 251 249 249 247 241 237 242 240 242 243 241 239
138 139 146 157 168 181 191 201 210 215 220 224 233 237 242 246 241 241 258 265 264 267 268 274 278 280 280 279 277 274 277 278 279 278 280 282 283 283 282 281 279 278 280 279 277 275 270 265 264 256 253 260 254 253 258 259 257 257 261 260 262 271 274 279 283 288 267 246 270 299 300 304 320 316 304 279 268 260 254 252 250 248 246 242 237
144 143 152 168 173 183 195 206 213 217 222 235 239 244 249 252 255 257 257 260 260 268 276 274 278 282 284 281 275 274 276 267 269 276 278 280 283 284 285 282 280 278 275 274 276 275 275 277 275 270 267 261 268 249 260 258 262 260 260 268 266 264 270 271 274 278 285 315 308 299 289 287 289 288 285 272 260 256 252 255 253 253 250 247 242
140 150 165 170 179 187 197 203 212 218 223 236 245 252 256 256 259 262 262 263 264 250 268 280 283 283 283 284 286 280 266 279 279 274 272 273 275 279 280 281 279 276 274 272 271 271 273 273 274 275 272 282 281 274 268 269 271 270 271 267 269 268 266 272 273 278 279 305 292 284 285 289 288 281 277 272 271 270 265 259 256 254 255 254 250
153 158 166 174 180 189 196 202 210 223 226 239 251 255 257 260 262 269 267 264 265 283 286 283 281 281 284 285 285 282 281 277 275 280 278 277 277 276 273 267 262 262 265 264 265 266 267 268 271 271 270 262 271 274 272 273 273 269 272 270 269 266 263 260 268 268 275 280 274 288 284 279 278 276 269 271 268 263 254 260 260 256 258 257 253
159 164 169 174 185 184 195 200 206 230 236 245 251 257 262 266 270 274 272 290 287 267 269 277 281 282 283 282 285 286 282 280 279 282 289 291 292 288 281 278 271 252 245 246 248 253 254 257 258 261 263 258 260 264 263 258 258 262 262 267 265 262 267 270 265 264 273 270 264 260 264 269 269 260 261 269 273 264 260 267 265 262 259 258 255
145 152 163 169 180 187 188 184 207 234 239 249 260 263 266 270 275 282 263 271 263 266 264 274 283 286 288 290 291 289 288 285 290 297 300 301 295 290 288 286 283 276 260 253 260 262 262 262 260 258 258 260 260 261 261 257 256 257 258 260 262 260 267 267 265 269 265 267 240 243 254 265 261 254 269 263 257 264 264 260 265 262 258 256 252
157 164 166 168 175 179 186 190 208 232 238 253 260 260 263 271 281 261 258 263 268 270 272 274 282 288 292 292 296 299 300 301 302 304 303 303 298 297 295 291 285 278 275 273 276 279 279 277 277 275 273 271 269 269 270 268 265 260 256 261 258 254 257 259 261 263 264 269 256 250 270 272 270 268 271 266 259 267 268 264 262 261 257 255 252
158 162 160 161 176 183 190 194 204 224 233 250 252 257 264 271 277 272 274 267 271 277 278 280 284 287 290 299 302 302 302 302 304 305 307 308 300 293 287 284 284 280 275 272 269 274 278 279 277 276 273 273 272 272 271 270 271 271 265 262 265 266 260 259 265 266 271 262 253 220 258 262 277 265 268 274 276 256 256 258 261 261 263 261 252
148 153 152 162 174 185 192 192 218 226 229 242 252 257 267 273 284 272 263 270 275 280 286 289 287 285 293 300 302 302 303 304 306 308 308 307 298 294 293 291 291 289 291 295 293 289 282 275 269 265 264 264 265 263 262 264 267 271 269 266 266 254 260 262 262 271 273 263 254 235 256 262 259 260 258 276 272 266 236 255 254 286 291 286 283